This demonstration page uses our WeatherBlox Daily Observations layout. Learn more.

Left ArrowRight Arrow

39.08367, -84.50855

Hourly Observations for December 1, 2022

Temp ( °F °C ) Dew Point ( °F °C ) Humidity (%) Winds ( mph kmh ) Pressure ( in mb ) Visibility ( mi km ) Precip ( " mm )
12:53 am 00:53 Clear 29 -1.7 16 -8.9 58 58 W 14 22 30.40 1030 10 16 0.00 0.00
1:53 am 01:53 Clear 29 -1.7 15 -9.4 56 56 W 9 15 30.42 1030 10 16 0.00 0.00
2:53 am 02:53 Clear 28 -2.2 15 -9.4 58 58 W 10 17 30.46 1031 10 16 0.00 0.00
3:53 am 03:53 Clear 27 -2.8 15 -9.4 60 60 W 8 13 30.48 1032 10 16 0.00 0.00
4:53 am 04:53 Clear 27 -2.8 15 -9.4 60 60 W 7 11 30.49 1033 10 16 0.00 0.00
5:53 am 05:53 Clear 24 -4.4 15 -9.4 68 68 WSW 7 11 30.52 1034 10 16 0.00 0.00
6:53 am 06:53 Clear 25 -3.9 15 -9.4 65 65 WNW 8 13 30.55 1035 10 16 0.00 0.00
7:53 am 07:53 Sunny 25 -3.9 15 -9.4 65 65 W 3 6 30.58 1035 10 16 0.00 0.00
8:53 am 08:53 Sunny 28 -2.2 17 -8.3 63 63 W 6 9 30.59 1036 10 16 0.00 0.00
9:53 am 09:53 Sunny 29 -1.7 16 -8.9 58 58 SW 5 7 30.60 1036 10 16 0.00 0.00
10:53 am 10:53 Sunny 32 0 16 -8.9 51 51 Calm 30.60 1036 10 16 0.00 0.00
11:53 am 11:53 Sunny 35 1.7 17 -8.3 47 47 S 5 7 30.59 1036 10 16 0.00 0.00
12:53 pm 12:53 Sunny 36 2.2 16 -8.9 44 44 Calm 30.57 1035 10 16 0.00 0.00
1:53 pm 13:53 Sunny 37 2.8 17 -8.3 44 44 Calm 30.54 1034 10 16 0.00 0.00
2:53 pm 14:53 Sunny 39 3.9 18 -7.8 42 42 S 5 7 30.53 1034 10 16 0.00 0.00
3:53 pm 15:53 Sunny 38 3.3 18 -7.8 44 44 SSE 5 7 30.50 1033 10 16 0.00 0.00
4:53 pm 16:53 Sunny 35 1.7 19 -7.2 52 52 S 5 7 30.50 1033 10 16 0.00 0.00
5:53 pm 17:53 Clear 34 1.1 21 -6.1 59 59 Calm 30.49 1033 10 16 0.00 0.00
6:53 pm 18:53 Clear 31 -0.6 21 -6.1 66 66 NNE 5 7 30.48 1032 10 16 0.00 0.00
8:53 pm 20:53 Clear 27 -2.8 22 -5.6 81 81 NE 3 6 30.47 1032 10 16 0.00 0.00
9:53 pm 21:53 Mostly Clear 26 -3.3 22 -5.6 84 84 Calm 30.45 1031 10 16 0.00 0.00
10:53 pm 22:53 Partly Cloudy 25 -3.9 22 -5.6 88 88 Calm 30.42 1030 10 16 0.00 0.00
11:53 pm 23:53 Clear 25 -3.9 22 -5.6 88 88 Calm 30.42 1030 10 16 0.00 0.00

Powered by AerisWeather